Weather WX

World > North America > United States > Minnesota

Spring Lake, Minnesota Regional Weather

Lat: 45.54N, Lon: 93.06W
Wx Zone: MNZ018
Warning FLW WEATHER ALERT - (More Info. Click Here) Warning
Feedback

Spring Lake, MN Regional Weather

Expires:201906241400;;001183
ASUS43 KMPX 241310
RWRMN 
WEATHER ROUNDUP FOR MINNESOTA
NATIONAL WEATHER SERVICE TWIN CITIES/CHANHASSEN MN
800 AM CDT MON JUN 24 2019


NOTE: "FAIR" INDICATES FEW OR NO CLOUDS BELOW 12,000 FEET WITH NO
SIGNIFICANT WEATHER AND/OR OBSTRUCTIONS TO VISIBILITY. N/A MEANS
CURRENT SKY AND/OR WEATHER CONDITIONS ARE NOT AVAILABLE.


MNZ006-009>011-018-025>026-241400-
   North Central Minnesota   
  
CITY           SKY/WX    TMP DP  RH WIND       PRES   REMARKS
BAUDETTE       PTSUNNY   60  56  86 W7        29.59S                  
FLAG ISLAND      N/A     63  55  77 NW3       29.59R                  
INTL FALLS     LGT RAIN  60  60 100 W3        29.58S FOG              
WASKISH        LGT RAIN  63  57  82 NW6       29.59F                  
BIG FORK       CLOUDY    61  59  94 CALM      29.64F                  
LONGVILLE      LGT RAIN  59  57  94 W5        29.61S                  
GRAND RAPIDS   CLOUDY    61  59  93 N14       29.59F                  
ORR            LGT RAIN  59  57  94 W5        29.56S                  
COOK           HVY RAIN  59  59 100 W7        29.56F                  
WALKER         CLOUDY   N/A N/A N/A W5        29.61S                  
$$

SKY/WX - Weather  TMP - Temperature  DP - Dew Point  RH - Relative Humidity
WIND - Wind Direction/Speed PRES - Barometric Pressure VSB - Visibility
WCI - Wind Chill Index E13G22 Wind - East Wind 13 mph/Gusts of 22 mph